Regional Weather Roundup
Issued by NWS Sioux Falls, SD

Home | Current Version | Previous Version | Text Only | Print | Product List | Glossary On
Versions: 1 2 3 4 5 6 7 8 9 10 11 12 13 14 15 16 17 18 19 20 21 22 23 24 25 26 27 28 29 30 31 32 33 34 35 36 37 38 39 40 41 42 43 44 45 46 47 48 49 50
000
ASUS43 KFSD 150310
RWRFSD

WEATHER ROUNDUP FOR SE SOUTH DAKOTA/SW MINNESOTA/NW IOWA
NATIONAL WEATHER SERVICE SIOUX FALLS SD
1000 PM CDT SUN SEP 14 2014

NOTE: "FAIR" INDICATES FEW OR NO CLOUDS BELOW 12,000 FEET WITH NO
SIGNIFICANT WEATHER AND OR OBSTRUCTIONS TO VISIBILITY.


SDZ038>040-050-052>070-150400-
SOUTHEAST SOUTH DAKOTA

CITY           SKY/WX    TMP DP  RH WIND       PRES   REMARKS
CHAMBERLAIN    CLOUDY    51  43  73 NE7       30.14S
HURON          CLOUDY    50  47  89 CALM      30.15R
MADISON        CLOUDY    46  46 100 NE6       30.14F
MITCHELL       CLOUDY    51  46  83 NE3       30.15S
SIOUX FALLS    CLOUDY    53  46  77 NE9       30.14R
WINNER         CLOUDY    52  42  69 NE8       30.14R
YANKTON        CLOUDY    59  52  77 NE6       30.10R
$$

MNZ071-072-080-081-089-090-097-098-150400-
SOUTHWEST MINNESOTA

CITY           SKY/WX    TMP DP  RH WIND       PRES   REMARKS
FAIRMONT       CLOUDY    52  45  76 N3        30.14S
JACKSON        CLOUDY    52  45  76 N5        30.15F
LUVERNE        CLOUDY    54  45  71 NE5       30.14S
MARSHALL       CLOUDY    48  45  87 W5        30.15S
MONTEVIDEO     MOCLDY    52  45  76 CALM      30.16S
PIPESTONE      LGT RAIN  50  43  76 NE5       30.14F
REDWOOD FALLS  CLOUDY    51  47  86 W6        30.15S
TRACY          LGT RAIN  50  47  88 CALM      30.16S
WINDOM         CLOUDY    52  46  82 NW5       30.15F
WORTHINGTON    CLOUDY    52  45  76 N5        30.16S
$$

IAZ001>003-012>014-020>022-031-032-NEZ013-014-SDZ071-150400-
NORTHWEST IOWA

CITY           SKY/WX    TMP DP  RH WIND       PRES   REMARKS
CHEROKEE       CLOUDY    55  54  97 CALM      30.11F
DENISON        CLOUDY    59  55  88 E5        30.10S
ESTHERVILLE    CLOUDY    53  46  77 NE6       30.14R
LE MARS          N/A     57  55  94 CALM      30.10F
ORANGE CITY    CLOUDY    59  50  72 E5        30.11F
SHELDON        CLOUDY    54  46  76 NE9G15    30.12S
SIOUX CITY     CLOUDY    60  53  77 SE7       30.09F
SPENCER        CLOUDY    53  48  83 NE6       30.14R
STORM LAKE     CLOUDY    59  55  88 N3        30.12S
$$

ABBREVIATIONS USED IN REMARKS
   TC - TEMPERATURE IN CELSIUS
  WCI - WIND CHILL INDEX
   HX - HEAT INDEX
  VSB - VISIBILITY




USA.gov is the U.S. government's official web portal to all federal, state and local government web resources and services.